Date String (YYYY-MM-DD hh:mm:ss) UTC,Instrument flags,absolute air pressure of the measurement (hPa),sample flow rate (lpm),inlet stack bypass flow (lpm),air temperature of the measurement (°C),ambient temperature measured by the external sensor (°C),aerosol sample conditioner tube jacket temperature (°C),OPC LED temperature (°C),internal box temperature (°C),relative humidity of the measurement (%),span deviation,mass concentration of particles derived from Lorenz-Mie calculation of OPC scattering (μg/m³),mass concentration of particles derived from Lorenz-Mie calculation of OPC scattering (μg/m³),mass concentration of particles derived from Lorenz-Mie calculation of OPC scattering (μg/m³)
DateTimeUTC,F1_M11,P_M11,Q1_M11,Q2_M11,T1_M11,T2_M11,T3_M11,T4_M11,T5_M11,U1_M11,ZSPAN_M11,X0_M11,X2_M11,X1_M11
2023-11-21 19:00:00,SystemResetWarning,0839.7,5.00,000.00,023.1,022.5,000.0,031.1,024.5,9.8,0000.0,0005.00,0000.96,0000.73
2023-11-21 19:01:00,SystemResetWarning,0839.7,5.00,000.00,023.1,022.5,000.0,031.1,024.5,9.6,0000.0,0005.10,0000.97,0000.72
2023-11-21 19:02:00,SystemResetWarning,0839.7,4.99,000.00,023.1,022.5,000.0,031.2,024.5,9.5,0000.0,0005.16,0000.99,0000.70
2023-11-21 19:03:00,SystemResetWarning,0839.7,4.99,000.00,023.1,022.5,000.0,031.2,024.5,9.6,0000.0,0006.15,0001.02,0000.69
2023-11-21 19:04:00,SystemResetWarning,0839.7,4.99,000.00,023.1,022.5,000.0,031.2,024.5,9.6,0000.0,0005.49,0001.02,0000.69
2023-11-21 19:05:00,SystemResetWarning,0839.7,5.00,000.00,023.2,022.5,000.0,031.2,024.6,9.5,0000.0,0004.88,0000.99,0000.67
2023-11-21 19:06:00,SystemResetWarning,0839.7,5.01,000.00,023.2,022.5,000.0,031.2,024.6,9.3,0000.0,0004.93,0001.00,0000.65
2023-11-21 19:07:00,SystemResetWarning,0839.6,5.01,000.00,023.2,022.5,000.0,031.2,024.6,9.2,0000.0,0004.91,0000.98,0000.64
2023-11-21 19:08:00,SystemResetWarning,0839.6,4.99,000.00,023.2,022.5,000.0,031.2,024.6,9.2,0000.0,0004.92,0000.97,0000.62
2023-11-21 19:09:00,SystemResetWarning,0839.6,4.99,000.00,023.2,022.5,000.0,031.3,024.6,9.2,0000.0,0004.64,0000.99,0000.61
2023-11-21 19:10:00,SystemResetWarning,0839.6,4.99,000.00,023.2,022.5,000.0,031.3,024.6,9.3,0000.0,0003.73,0000.95,0000.60
2023-11-21 19:11:00,SystemResetWarning,0839.6,5.00,000.00,023.2,022.6,000.0,031.3,024.6,9.2,0000.0,0003.48,0000.94,0000.58
2023-11-21 19:12:00,SystemResetWarning,0839.5,5.00,000.00,023.3,022.6,000.0,031.3,024.7,9.3,0000.0,0003.36,0000.91,0000.56
2023-11-21 19:13:00,SystemResetWarning,0839.5,5.00,000.00,023.3,022.6,000.0,031.3,024.7,9.5,0000.0,0003.37,0000.90,0000.54
2023-11-21 19:14:00,SystemResetWarning,0839.5,5.00,000.00,023.3,022.6,000.0,031.4,024.7,9.6,0000.0,0003.20,0000.84,0000.54
2023-11-21 19:15:00,SystemResetWarning,0839.5,5.01,000.00,023.3,022.6,000.0,031.4,024.7,9.5,0000.0,0001.53,0000.80,0000.53
2023-11-21 19:16:00,SystemResetWarning,0839.5,5.00,000.00,023.3,022.6,000.0,031.4,024.7,9.5,0000.0,0001.51,0000.78,0000.53
2023-11-21 19:17:00,SystemResetWarning,0839.6,4.99,000.00,023.3,022.6,000.0,031.4,024.7,9.4,0000.0,0002.11,0000.79,0000.52
2023-11-21 19:18:00,SystemResetWarning,0839.5,5.00,000.00,023.4,022.6,000.0,031.4,024.7,9.1,0000.0,0002.71,0000.78,0000.52
2023-11-21 19:19:00,SystemResetWarning,0839.5,5.00,000.00,023.4,022.6,000.0,031.4,024.7,9.1,0000.0,0002.75,0000.80,0000.52
2023-11-21 19:20:00,SystemResetWarning,0839.5,5.00,000.00,023.4,022.6,000.0,031.4,024.7,9.3,0000.0,0002.50,0000.76,0000.52
2023-11-21 19:21:00,SystemResetWarning,0839.4,5.00,000.00,023.4,022.7,000.0,031.5,024.8,9.3,0000.0,0002.47,0000.76,0000.52
2023-11-21 19:22:00,SystemResetWarning,0839.4,5.00,000.00,023.4,022.7,000.0,031.5,024.8,9.4,0000.0,0002.43,0000.74,0000.52
2023-11-21 19:23:00,SystemResetWarning,0839.4,5.00,000.00,023.4,022.7,000.0,031.5,024.8,9.6,0000.0,0002.43,0000.75,0000.53
2023-11-21 19:24:00,SystemResetWarning,0839.4,5.00,000.00,023.4,022.7,000.0,031.5,024.8,9.3,0000.0,0002.41,0000.74,0000.54
2023-11-21 19:25:00,SystemResetWarning,0839.3,4.99,000.00,023.4,022.7,000.0,031.5,024.8,9.5,0000.0,0002.48,0000.72,0000.53
2023-11-21 19:26:00,SystemResetWarning,0839.3,5.00,000.00,023.4,022.7,000.0,031.5,024.8,9.6,0000.0,0003.09,0000.72,0000.53
2023-11-21 19:27:00,SystemResetWarning,0839.3,5.00,000.00,023.5,022.7,000.0,031.5,024.8,9.8,0000.0,0003.32,0000.73,0000.53
2023-11-21 19:28:00,SystemResetWarning,0839.2,5.00,000.00,023.5,022.7,000.0,031.6,024.8,9.8,0000.0,0003.44,0000.74,0000.54
2023-11-21 19:29:00,SystemResetWarning,0839.2,5.00,000.00,023.5,022.8,000.0,031.6,024.9,9.6,0000.0,0003.76,0000.76,0000.54
2023-11-21 19:30:00,SystemResetWarning,0839.3,5.00,000.00,023.5,022.8,000.0,031.6,024.9,9.6,0000.0,0004.67,0000.73,0000.54
2023-11-21 19:31:00,SystemResetWarning,0839.2,5.00,000.00,023.5,022.8,000.0,031.6,024.9,9.6,0000.0,0005.88,0000.73,0000.54
2023-11-21 19:32:00,SystemResetWarning,0839.2,5.00,000.00,023.5,022.8,000.0,031.6,024.9,9.4,0000.0,0006.11,0000.78,0000.55
2023-11-21 19:33:00,SystemResetWarning,0839.2,5.00,000.00,023.5,022.8,000.0,031.6,024.9,9.2,0000.0,0006.12,0000.79,0000.56
2023-11-21 19:34:00,SystemResetWarning,0839.2,5.00,000.00,023.6,022.8,000.0,031.6,024.9,9.0,0000.0,0006.17,0000.80,0000.56
2023-11-21 19:35:00,SystemResetWarning,0839.2,5.00,000.00,023.6,022.9,000.0,031.7,024.9,8.9,0000.0,0006.10,0000.80,0000.57
2023-11-21 19:36:00,SystemResetWarning,0839.2,5.00,000.00,023.6,022.9,000.0,031.7,025.0,8.9,0000.0,0006.24,0000.86,0000.58
2023-11-21 19:37:00,SystemResetWarning,0839.2,5.00,000.00,023.6,022.9,000.0,031.7,025.0,9.2,0000.0,0005.80,0000.89,0000.59
2023-11-21 19:38:00,SystemResetWarning,0839.2,5.00,000.00,023.6,022.9,000.0,031.7,025.0,9.4,0000.0,0005.51,0000.87,0000.60
2023-11-21 19:39:00,SystemResetWarning,0839.2,5.00,000.00,023.7,023.0,000.0,031.7,025.0,9.5,0000.0,0005.46,0000.85,0000.60
2023-11-21 19:40:00,SystemResetWarning,0839.2,5.00,000.00,023.7,023.0,000.0,031.7,025.0,9.5,0000.0,0003.99,0000.82,0000.59
2023-11-21 19:41:00,SystemResetWarning,0839.2,5.00,000.00,023.7,023.0,000.0,031.8,025.0,9.5,0000.0,0003.24,0000.82,0000.59
2023-11-21 19:42:00,SystemResetWarning,0839.1,5.00,000.00,023.7,023.0,000.0,031.8,025.1,9.5,0000.0,0002.03,0000.82,0000.58
2023-11-21 19:43:00,SystemResetWarning,0839.2,5.00,000.00,023.7,023.0,000.0,031.8,025.1,9.4,0000.0,0001.64,0000.80,0000.58
2023-11-21 19:44:00,SystemResetWarning,0839.1,5.00,000.00,023.7,023.0,000.0,031.8,025.1,9.5,0000.0,0001.74,0000.80,0000.57
2023-11-21 19:45:00,SystemResetWarning,0839.1,5.00,000.00,023.8,023.1,000.0,031.8,025.1,9.6,0000.0,0001.97,0000.82,0000.57
2023-11-21 19:46:00,SystemResetWarning,0839.1,5.00,000.00,023.8,023.1,000.0,031.8,025.1,9.7,0000.0,0002.55,0000.84,0000.57
2023-11-21 19:47:00,SystemResetWarning,0839.1,5.00,000.00,023.8,023.1,000.0,031.9,025.2,9.6,0000.0,0002.45,0000.81,0000.57
2023-11-21 19:48:00,SystemResetWarning,0839.1,5.00,000.00,023.8,023.2,000.0,031.9,025.2,9.6,0000.0,0002.27,0000.80,0000.57
2023-11-21 19:49:00,SystemResetWarning,0839.1,5.00,000.00,023.8,023.2,000.0,031.9,025.2,9.9,0000.0,0002.32,0000.83,0000.58
2023-11-21 19:50:00,SystemResetWarning,0839.1,5.00,000.00,023.9,023.2,000.0,031.9,025.2,9.9,0000.0,0002.16,0000.84,0000.58
2023-11-21 19:51:00,SystemResetWarning,0839.1,5.01,000.00,023.9,023.2,000.0,031.9,025.2,9.8,0000.0,0002.20,0000.86,0000.59
2023-11-21 19:52:00,SystemResetWarning,0839.1,5.00,000.00,023.9,023.2,000.0,031.9,025.3,9.7,0000.0,0002.38,0000.91,0000.61
2023-11-21 19:53:00,SystemResetWarning,0839.0,4.99,000.00,023.9,023.2,000.0,032.0,025.3,9.7,0000.0,0002.48,0000.93,0000.62
2023-11-21 19:54:00,SystemResetWarning,0838.9,4.99,000.00,023.9,023.3,000.0,032.0,025.3,9.9,0000.0,0002.77,0000.94,0000.63
2023-11-21 19:55:00,SystemResetWarning,0838.9,4.99,000.00,024.0,023.3,000.0,032.0,025.3,9.8,0000.0,0003.20,0000.98,0000.64
2023-11-21 19:56:00,SystemResetWarning,0838.9,5.00,000.00,024.0,023.3,000.0,032.0,025.4,9.7,0000.0,0003.83,0000.96,0000.65
2023-11-21 19:57:00,SystemResetWarning,0838.9,5.01,000.00,024.0,023.3,000.0,032.0,025.4,9.7,0000.0,0004.09,0001.03,0000.66
2023-11-21 19:58:00,SystemResetWarning,0839.0,5.01,000.00,024.0,023.3,000.0,032.1,025.4,9.7,0000.0,0004.01,0001.02,0000.66
2023-11-21 19:59:00,SystemResetWarning,0838.9,5.00,000.00,024.0,023.3,000.0,032.1,025.4,9.6,0000.0,0004.93,0001.03,0000.67
